Weather History for KROW - February, 2012

Change the Weather History Date:

Tuesday, February 14, 2012

  Actual Average Record
Temperature  
Mean Temperature 48 °F 46 °F  
Max Temperature 70 °F 61 °F 84 °F (1979)
Min Temperature 26 °F 31 °F -4 °F (1905)
Degree Days  
Heating Degree Days 17 19  
Month to date heating degree days 333 292  
Since 1 July heating degree days 2428 2458  
Cooling Degree Days 0 0  
Month to date cooling degree days 0 0  
Year to date cooling degree days 0 0  
Moisture  
Dew Point 24 °F    
Average Humidity 44    
Maximum Humidity 69    
Minimum Humidity 19    
Precipitation  
Precipitation 0.00 in 0.02 in 0.51 in (1962)
Month to date precipitation 0.02 0.21  
Year to date precipitation 0.02 0.59  
Sea Level Pressure  
Sea Level Pressure 29.77 in    
Wind  
Wind Speed 10 mph (West)    
Max Wind Speed 36 mph    
Max Gust Speed 43 mph    
Visibility 10 miles    
Events      
T = Trace of Precipitation, MM = Missing Value Source: NWS Daily Summary

Daily Weather History Graph

Daily Weather History Graph

Search for Another Location

Airport or City:

Trip Planner

Search our weather history database for the weather conditions in past years. The results will help you decide how hot, cold, wet, or windy it might be!

Date:

Astronomy

Feb. 14, 2012 Rise Set
Actual Time 6:43 AM MST 5:41 PM MST
Civil Twilight 6:17 AM MST 6:07 PM MST
Nautical Twilight 5:48 AM MST 6:36 PM MST
Astronomical Twilight 5:19 AM MST 7:05 PM MST
Moon 12:24 AM MST (2/14) 10:56 AM MST (2/14)
Length of Visible Light 11h 49m
Length of Day
10h 58m
Waning Gibbous, 49% of the Moon is Illuminated
Feb 14
Waning Gibbous
Feb 21
New
Feb 29
First Quarter
Mar 8
Full
Mar 14
Last Quarter

Hourly Weather History & Observations

Time (MST) Temp. Windchill Dew Point Humidity Pressure Visibility Wind Dir Wind Speed Gust Speed Precip Events Conditions
12:51 AM 33.1 °F 27.7 °F 19.9 °F 59% 29.79 in 10.0 mi North 5.8 mph - N/A   Clear
1:51 AM 30.0 °F 26.5 °F 19.0 °F 64% 29.78 in 10.0 mi South 3.5 mph - N/A   Scattered Clouds
2:51 AM 32.0 °F 27.5 °F 19.9 °F 61% 29.78 in 10.0 mi North 4.6 mph - N/A   Partly Cloudy
3:51 AM 28.0 °F - 19.0 °F 69% 29.77 in 10.0 mi Calm Calm - N/A   Clear
4:51 AM 32.0 °F 27.5 °F 19.9 °F 61% 29.77 in 10.0 mi North 4.6 mph - N/A   Clear
5:51 AM 30.0 °F 26.5 °F 19.9 °F 66% 29.80 in 10.0 mi NNE 3.5 mph - N/A   Clear
6:51 AM 28.9 °F 23.9 °F 19.9 °F 69% 29.83 in 10.0 mi North 4.6 mph - N/A   Clear
7:51 AM 35.1 °F 31.0 °F 21.9 °F 59% 29.84 in 10.0 mi NW 4.6 mph - N/A   Clear
8:51 AM 39.0 °F 36.8 °F 23.0 °F 53% 29.84 in 10.0 mi North 3.5 mph - N/A   Clear
9:51 AM 46.0 °F 44.8 °F 25.0 °F 44% 29.82 in 10.0 mi Variable 3.5 mph - N/A   Clear
10:51 AM 55.0 °F - 26.1 °F 33% 29.78 in 10.0 mi Calm Calm - N/A   Clear
11:51 AM 62.6 °F - 28.4 °F 27% 29.79 in 10.0 mi East 9.2 mph - N/A   Clear
12:46 PM 69.8 °F - 24.8 °F 18% 29.74 in 10.0 mi WSW 31.1 mph 40.3 mph N/A   Scattered Clouds
12:51 PM 68.0 °F - 24.1 °F 19% 29.65 in 10.0 mi WSW 29.9 mph 40.3 mph N/A   Scattered Clouds
1:51 PM 66.0 °F - 25.0 °F 21% 29.68 in 10.0 mi West 20.7 mph 31.1 mph N/A   Scattered Clouds
2:51 PM 64.9 °F - 27.0 °F 24% 29.68 in 10.0 mi SW 18.4 mph 28.8 mph N/A   Mostly Cloudy
3:51 PM 63.0 °F - 27.0 °F 26% 29.70 in 10.0 mi SW 25.3 mph 32.2 mph N/A   Clear
4:51 PM 60.1 °F - 28.0 °F 30% 29.71 in 10.0 mi SW 19.6 mph 34.5 mph N/A   Clear
5:51 PM 52.0 °F - 27.0 °F 38% 29.75 in 10.0 mi SW 8.1 mph - N/A   Clear
6:51 PM 48.2 °F - 26.6 °F 43% 29.79 in 10.0 mi SSW 6.9 mph - N/A   Clear
7:51 PM 45.0 °F 40.6 °F 26.1 °F 48% 29.79 in 10.0 mi SW 8.1 mph - N/A   Clear
8:51 PM 46.0 °F 42.5 °F 30.0 °F 54% 29.79 in 10.0 mi West 6.9 mph - N/A   Partly Cloudy
9:51 PM 39.9 °F 33.9 °F 27.0 °F 60% 29.81 in 10.0 mi West 9.2 mph - N/A   Clear
10:51 PM 46.9 °F - 28.9 °F 50% 29.77 in 10.0 mi West 18.4 mph - N/A   Clear
11:51 PM 43.0 °F 35.4 °F 28.9 °F 58% 29.75 in 10.0 mi West 16.1 mph - N/A   Clear